Location: Jackson Park
(37.2862°N, 79.9123°W)
Time: 05:09:10
(UTC+00:00)

Tiros 1 despin weight - All Passes

Search period start: 10 May 2026 00:00
Search period end: 20 May 2026 00:00
Orbit: 555 x 591 km, 48.2° (Epoch: 9 May)

Date Brightness Start Highest point End Pass type
(mag) Time Alt. Az. Time Alt. Az. Time Alt. Az.
10 May - 10:18:54 10° SSE 10:20:58 13° SE 10:23:02 10° E daylight
10 May - 11:56:46 10° SW 12:00:59 88° SSE 12:05:12 10° NE daylight
10 May - 13:38:24 10° WNW 13:41:55 25° NNW 13:45:26 10° NE daylight
10 May - 15:20:32 10° NW 15:23:29 18° N 15:26:27 10° NE daylight
10 May - 17:01:07 10° NW 17:04:56 33° NNE 17:08:46 10° E daylight
10 May - 18:41:31 10° WNW 18:45:35 51° SW 18:49:42 10° SE daylight
11 May - 10:19:20 10° S 10:22:36 22° SE 10:25:51 10° E daylight
11 May - 11:58:40 10° WSW 12:02:51 61° NNW 12:07:01 10° NE daylight
11 May - 13:40:43 10° WNW 13:43:59 21° NNW 13:47:15 10° NE daylight
11 May - 15:22:31 10° NW 15:25:37 19° N 15:28:41 10° NE daylight
11 May - 17:02:51 10° NW 17:06:54 45° NNE 17:10:57 10° ESE daylight
11 May - 18:43:35 10° WNW 18:47:19 32° SW 18:51:05 10° SSE daylight
12 May - 10:20:26 10° SSW 10:24:17 35° SE 10:28:08 10° ENE daylight
12 May - 12:00:44 10° W 12:04:46 42° NNW 12:08:46 10° NE daylight
12 May - 13:43:01 10° NW 13:46:05 19° N 13:49:08 10° NE daylight
12 May - 15:24:23 10° NW 15:27:42 22° NNE 15:31:00 10° ENE daylight
12 May - 17:04:37 10° NW 17:08:48 66° NNE 17:12:59 10° ESE daylight
12 May - 18:45:55 10° W 18:48:59 20° SW 18:52:05 10° S daylight
13 May - 10:21:52 10° SW 10:26:01 56° SE 10:30:09 10° ENE daylight
13 May - 12:02:55 10° W 12:06:43 32° NNW 12:10:31 10° NE daylight
13 May - 13:45:14 10° NW 13:48:11 18° N 13:51:08 10° NE daylight
13 May - 15:26:11 10° NW 15:29:45 26° NNE 15:33:19 10° ENE daylight
13 May - 17:06:26 10° WNW 17:10:38 82° SW 17:14:50 10° SE daylight
13 May - 18:48:58 10° WSW 18:50:36 12° SW 18:52:15 10° SSW daylight
14 May - 08:45:41 10° SSE 08:47:47 13° SE 08:49:51 10° E visible
14 May - 10:23:33 10° SW 10:27:48 88° SSE 10:32:02 10° NE daylight
14 May - 12:05:11 10° WNW 12:08:44 25° NNW 12:12:16 10° NE daylight
14 May - 13:47:20 10° NW 13:50:18 18° N 13:53:16 10° NE daylight
14 May - 15:27:55 10° NW 15:31:45 33° NNE 15:35:34 10° E daylight
14 May - 17:08:20 10° WNW 17:12:24 51° SW 17:16:28 10° SE daylight
15 May - 08:46:06 10° S 08:49:24 22° SE 08:52:40 10° E visible
15 May - 10:25:26 10° WSW 10:29:39 62° NNW 10:33:49 10° NE daylight
15 May - 12:07:29 10° WNW 12:10:46 21° NNW 12:14:03 10° NE daylight
15 May - 13:49:18 10° NW 13:52:24 19° N 13:55:29 10° NE daylight
15 May - 15:29:39 10° NW 15:33:41 45° NNE 15:37:43 10° ESE daylight
15 May - 17:10:23 10° WNW 17:14:06 32° SW 17:17:50 10° SSE daylight
16 May - 08:47:10 10° SSW 08:51:04 35° SE 08:54:55 10° ENE visible
16 May - 10:27:28 10° W 10:31:31 43° NNW 10:35:34 10° NE daylight
16 May - 12:09:46 10° NW 12:12:51 19° N 12:15:55 10° NE daylight
16 May - 13:51:09 10° NW 13:54:28 22° NNE 13:57:46 10° ENE daylight
16 May - 15:31:24 10° NW 15:35:34 66° NNE 15:39:43 10° ESE daylight
16 May - 17:12:42 10° W 17:15:45 20° SW 17:18:50 10° S daylight
17 May - 08:48:35 10° SW 08:52:46 56° SE 08:56:55 10° ENE visible
17 May - 10:29:38 10° W 10:33:28 32° NNW 10:37:17 10° NE daylight
17 May - 12:11:58 10° NW 12:14:56 18° N 12:17:54 10° NE daylight
17 May - 13:52:55 10° NW 13:56:30 26° NNE 14:00:03 10° ENE daylight
17 May - 15:33:11 10° WNW 15:37:23 82° SSW 15:41:34 10° SE daylight
17 May - 17:15:43 10° WSW 17:17:21 12° SW 17:18:59 10° SSW daylight
18 May - 07:12:22 10° SSE 07:14:29 14° SE 07:16:37 10° E visible
18 May - 08:50:15 10° SW 08:54:32 88° SE 08:58:47 10° NE visible
18 May - 10:31:53 10° WNW 10:35:27 26° NNW 10:39:01 10° NE daylight
18 May - 12:14:02 10° NW 12:17:01 18° N 12:20:00 10° NE daylight
18 May - 13:54:39 10° NW 13:58:29 33° NNE 14:02:17 10° E daylight
18 May - 15:35:04 10° WNW 15:39:08 51° SW 15:43:11 10° SE daylight
19 May - 07:12:46 10° S 07:16:06 22° SE 07:19:24 10° E visible
19 May - 08:52:07 10° WSW 08:56:20 62° NNW 09:00:33 10° NE visible
19 May - 10:34:09 10° WNW 10:37:28 22° NNW 10:40:47 10° NE daylight
19 May - 12:15:59 10° NW 12:19:06 20° N 12:22:12 10° NE daylight
19 May - 13:56:21 10° NW 14:00:24 45° NNE 14:04:25 10° E daylight
19 May - 15:37:05 10° WNW 15:40:50 32° SW 15:44:33 10° SSE daylight
